Preview of NWS' New Version of Forecast
This preview is not operational and should not be used for support decisions.

Regional Weather Roundup (RWR)

Issued by National Weather Service (NWS)

                            
000
ASUS44 KMEG 190510
RWRTN 
TENNESSEE HOURLY STATE WEATHER ROUNDUP
NATIONAL WEATHER SERVICE MEMPHIS TN
1200 AM CDT SUN MAY 19 2019

TNZ002-004-019-021-049-052-054-088>092-190600-
WEST TENNESSEE
  
CITY           SKY/WX    TMP DP  RH WIND       PRES   REMARKS
MEMPHIS INTL   LGT RAIN  65  65 100 SE3       29.89F FOG              
NWS MEMPHIS      N/A     65 N/A N/A MISG        N/A                   
JACKSON        LGT RAIN  65  64  97 W7        29.92R FOG              
DYERSBURG      RAIN      65  64  97 S6        29.89F                  
SOMERVILLE     CLOUDY    64  63  94 CALM      29.91R                  
COVINGTON      CLOUDY    64  64 100 CALM      29.89F                  
UNION CITY     CLOUDY    66  64  94 VRB6      29.85S FOG              
BOLIVAR        MOCLDY    66  64  94 W7G15     29.91R                  
PARIS          CLOUDY    75  63  64 S10G17    29.84R                  
HUNTINGDON     CLOUDY    75  64  69 W10G25    29.86R                  
LEXINGTON      MOCLDY    75  63  64 S12       29.85F                  
SELMER         MOCLDY    77  63  61 SW9G18    29.88R                  
SAVANNAH       PTCLDY    77  64  65 S13       29.87S                  
$$

TNZ008-025-027-028-033-062-065-066-190600-
NORTH MIDDLE TENNESSEE
  
CITY           SKY/WX    TMP DP  RH WIND       PRES   REMARKS
NASHVILLE      MOCLDY    73  62  68 S10       29.90F                  
DICKSON        CLEAR     73  61  64 S9        29.88S                  
PORTLAND       CLEAR     72  64  78 S8        29.90S                  
CLARKSVILLE    FAIR      74  58  57 S6        29.86S                  
LEBANON        CLEAR     73  63  68 S9        29.89F                  
MURFREESBORO   CLEAR     73  64  73 S7        29.91S                  
COOKEVILLE     CLEAR     70  66  88 S7        29.96S                  
LIVINGSTON     CLEAR     72  64  78 SW7       29.97S                  
CROSSVILLE     FAIR      67  61  81 S5        30.03S                  
ROCKWOOD       CLEAR     64  63  94 CALM      30.02R                  
$$

TNZ061-075-076-078-094-096-097-190600-
SOUTH MIDDLE TENNESSEE
  
CITY           SKY/WX    TMP DP  RH WIND       PRES   REMARKS
LAWRENCEBURG   CLEAR     72  63  73 S9        29.92F                  
LEWISBURG      CLEAR     70  63  78 S7        29.92F                  
FAYETTEVILLE   CLEAR     68  63  83 SE8       29.95F                  
TULLAHOMA      CLEAR     68  63  83 S6        29.96S                  
WINCHESTER     CLEAR     72  61  68 S8        29.97S                  
MCMINNVILLE    CLEAR     72  61  68 CALM      29.96F                  
COLUMBIA       CLEAR     75  64  69 S6G12     29.88F                  
SHELBYVILLE    CLEAR     72  63  73 S7        29.94S                  
$$

TNZ017-018-042-046-047-190600-
NORTHEAST TENNESSEE
  
CITY           SKY/WX    TMP DP  RH WIND       PRES   REMARKS
TRI CITIES     CLOUDY    64  63  96 NE3       30.04F                  
ELIZABETHTON   FAIR      64  64 100 CALM      30.05R                  
GREENEVILLE    CLEAR     64  64 100 CALM      30.03F                  
$$

TNZ012-013-036-069-073-074-190600-
CENTRAL EAST TENNESSEE
  
CITY           SKY/WX    TMP DP  RH WIND       PRES   REMARKS
KNOXVILLE      FAIR      66  64  93 NE5       29.99S                  
OAK RIDGE      FAIR      67  64  90 CALM      30.02R                  
DOWNTOWN KNOXV CLOUDY    66  66 100 E3        30.01R                  
GATLINBURG     PTCLDY    66  64  94 CALM      30.01R                  
MORRISTOWN     CLOUDY    66  64  94 CALM      30.02R                  
JACKSBORO      PTCLDY    64  63  94 CALM      30.05S                  
$$

TNZ083-085-099-190600-
SOUTHEAST TENNESSEE
  
CITY           SKY/WX    TMP DP  RH WIND       PRES   REMARKS
CHATTANOOGA    FAIR      72  67  84 SW3       29.98S                  
DAYTON         CLEAR     68  66  94 CALM      29.98R                  
$$

SKY/WX REPORTED AS FAIR MEANS FEW OR NO CLOUDS BELOW
12 THOUSAND FEET.